* Astronomy

Members Login
Post Info TOPIC: Asteroid 451 Patientia


L

Posts: 130397
Date:
Asteroid 451 Patientia
Permalink  
 


(451) Patientia
Epoch 2007 Oct. 27.0 TT = JDT 2454400.5 Goffin
M 46.88176 (2000.0) P Q
n 0.18404482 Peri. 340.35149 +0.33438737 -0.90512786
a 3.0609317 Node 89.39445 +0.89598323 +0.21893868
e 0.0772119 Incl. 15.22186 +0.29223132 +0.36443026
P 5.36 H 6.65 G 0.19 U 0


Ephemeris
Date TT R. A. (2000) Decl. Delta r Elong. Phase V
2008 01 01 10 35.05 +24 44.7 2.252 2.954 127.3 15.4 11.6
2008 01 06 10 34.98 +25 22.7 2.205 2.957 132.2 14.3 11.5
2008 01 11 10 34.27 +26 03.5 2.163 2.961 137.2 13.1 11.4
2008 01 16 10 32.92 +26 46.5 2.126 2.964 142.1 11.8 11.3
2008 01 21 10 30.95 +27 30.9 2.094 2.968 146.9 10.4 11.2
2008 01 26 10 28.40 +28 15.8 2.069 2.971 151.5 9.1 11.2
2008 01 31 10 25.33 +29 00.2 2.050 2.975 155.7 7.8 11.1
2008 02 05 10 21.79 +29 43.0 2.037 2.979 159.0 6.8 11.0
2008 02 10 10 17.89 +30 23.1 2.032 2.982 161.0 6.2 11.0
2008 02 15 10 13.75 +30 59.6 2.034 2.986 161.3 6.1 11.0
2008 02 20 10 09.50 +31 31.7 2.043 2.990 159.7 6.6 11.1
2008 02 25 10 05.26 +31 58.6 2.058 2.993 156.8 7.5 11.1



__________________
«First  <  1 2 | Page of 2  sorted by
Quick Reply

Please log in to post quick replies.



Create your own FREE Forum
Report Abuse
Powered by ActiveBoard